Date,TemperatureHighF,TemperatureAvgF,TemperatureLowF,DewpointHighF,DewpointAvgF,DewpointLowF,HumidityHigh,HumidityAvg,HumidityLow,PressureMaxIn,PressureMinIn,WindSpeedMaxMPH,WindSpeedAvgMPH,GustSpeedMaxMPH,PrecipitationSumIn
2012-7-16,87,80,74,68,66,63,77,64,47,29.89,29.83,5,1,8,0.00
2012-7-17,92,82,72,72,67,58,80,60,48,29.83,29.70,15,2,21,0.00
2012-7-18,83,76,66,72,66,61,90,72,51,29.94,29.75,4,0,0,0.00
2012-7-19,79,67,61,67,61,57,94,82,54,29.98,29.92,2,0,0,0.07
2012-7-20,71,64,60,65,62,59,96,91,76,30.05,29.97,0,0,1,0.17
2012-7-21,81,69,54,64,60,53,97,75,45,30.09,30.00,4,0,7,0.00
2012-7-22,84,74,64,68,64,61,89,72,54,30.07,30.01,10,1,0,0.00
2012-7-23,88,79,68,73,68,63,96,72,46,30.02,29.70,10,2,10,0.71
2012-7-24,82,74,60,73,63,51,95,73,40,29.90,29.71,9,1,0,0.00
2012-7-25,82,69,55,63,57,53,95,70,38,29.98,29.71,8,0,0,0.01
2012-7-26,76,72,65,72,68,61,96,89,66,29.71,29.55,5,0,0,0.20
2012-7-27,80,73,67,69,67,64,96,83,57,29.88,29.64,1,0,1,0.02
2012-7-28,78,70,61,70,64,60,97,83,54,30.00,29.88,1,0,3,1.29
2012-7-29,83,70,57,64,59,55,96,72,40,30.06,29.99,5,0,5,0.00
2012-7-30,83,71,59,66,59,52,94,70,35,30.04,29.94,4,1,0,0.00
2012-7-31,87,73,65,70,66,61,90,79,47,29.95,29.79,6,0,0,0.00
2012-8-1,81,72,65,69,66,63,96,82,63,29.86,29.81,6,1,0,0.00
2012-8-2,81,72,63,69,65,62,95,79,59,29.89,29.83,7,1,0,0.00
2012-8-3,91,76,65,72,66,61,96,75,37,30.00,29.88,5,0,0,0.04
2012-8-4,92,81,70,75,70,67,93,72,49,30.03,29.91,3,0,1,0.00
2012-8-5,83,76,68,73,70,63,95,80,68,30.00,29.84,6,1,10,1.37
2012-8-6,76,67,57,63,58,55,94,73,53,30.11,30.01,4,0,5,0.00
2012-8-7,82,67,54,64,57,51,92,74,38,30.01,29.92,9,1,0,0.00
2012-8-8,85,72,60,69,63,58,93,76,53,29.94,29.88,5,0,0,0.00
2012-8-9,78,72,65,68,65,62,95,82,59,29.90,29.78,5,0,3,0.00
2012-8-10,78,70,65,69,66,63,95,87,69,29.78,29.65,3,0,0,0.05
2012-8-11,71,66,61,63,61,59,97,83,66,29.86,29.68,7,1,7,0.00
2012-8-12,74,67,63,66,63,60,96,87,66,29.96,29.84,7,1,0,0.18
2012-8-13,79,70,63,68,63,60,97,81,54,30.00,29.93,6,1,0,0.00
2012-8-14,79,68,62,67,63,60,96,88,61,29.95,29.83,5,0,0,0.32
2012-8-15,77,67,59,66,62,58,98,84,60,29.93,29.86,3,0,0,0.00
2012-8-16,81,70,59,65,61,57,97,78,46,29.97,29.77,7,1,0,0.00
2012-8-17,75,70,59,67,61,54,94,76,57,29.90,29.70,10,2,0,0.15
2012-8-18,72,62,51,57,52,49,96,73,46,29.99,29.90,5,0,6,0.00
2012-8-19,77,62,51,58,52,47,93,74,38,29.97,29.86,5,0,2,0.00
2012-8-20,75,64,53,58,54,51,96,73,45,29.97,29.87,4,0,0,0.00
2012-8-21,76,62,51,55,49,39,95,67,28,30.09,29.97,6,0,0,0.00
2012-8-22,77,65,54,61,55,50,88,72,47,30.14,30.08,7,1,0,0.00
2012-8-23,82,67,54,61,54,51,89,67,35,30.16,30.10,8,1,0,0.00
2012-8-24,86,71,58,63,58,53,88,67,38,30.16,30.09,4,0,0,0.00
2012-8-25,88,74,61,67,61,56,92,68,33,30.20,30.12,4,0,3,0.00
2012-8-26,84,73,61,68,63,58,91,73,53,30.22,30.07,6,0,3,0.00
2012-8-27,78,70,64,70,66,62,96,86,67,30.07,29.89,5,0,3,0.17
2012-8-28,76,69,57,68,63,54,97,81,58,30.01,29.89,9,1,9,0.00
2012-8-29,74,61,51,56,51,45,97,73,37,30.08,30.01,4,0,0,0.00
2012-8-30,78,62,51,63,56,49,93,81,55,30.10,30.00,7,1,5,0.00
2012-8-31,84,74,61,72,62,54,88,66,44,30.01,29.90,13,2,0,0.00
2012-9-1,86,72,60,68,59,55,93,66,38,30.08,29.98,6,0,0,0.00
2012-9-2,85,69,53,59,56,52,95,66,35,30.06,29.98,3,0,0,0.00
2012-9-3,88,73,57,70,65,55,97,77,51,30.01,29.89,2,0,0,0.00
2012-9-4,82,72,67,72,68,65,96,88,69,29.92,29.75,5,0,0,1.50
2012-9-5,80,70,63,69,65,61,98,85,54,29.88,29.80,2,0,0,0.00
2012-9-6,81,72,65,71,67,63,97,85,65,29.88,29.78,6,1,0,0.00
2012-9-7,82,71,62,69,63,58,97,79,50,29.89,29.67,3,0,0,0.00
2012-9-8,72,65,55,67,60,52,96,86,60,29.77,29.40,9,1,0,0.85
2012-9-9,67,59,53,56,52,45,97,80,46,30.00,29.77,5,0,0,0.01
2012-9-10,68,57,47,53,48,42,97,75,42,30.17,30.01,7,1,0,0.00
2012-9-11,73,60,48,58,52,46,95,77,52,30.26,30.17,7,1,7,0.00
2012-9-12,78,64,52,58,54,50,93,73,45,30.29,30.21,7,0,0,0.00
2012-9-13,82,67,56,63,58,53,93,75,39,30.28,30.18,6,0,0,0.00
2012-9-14,78,64,52,65,59,51,95,85,57,30.20,30.05,10,1,0,0.22
2012-9-15,67,56,48,57,51,47,97,86,60,30.25,30.13,5,0,0,0.01
2012-9-16,70,58,47,59,52,46,97,82,60,30.16,30.04,8,1,0,0.00
2012-9-17,74,62,52,57,53,48,95,75,40,30.05,29.81,2,0,0,0.00
2012-9-18,69,61,48,65,58,46,96,90,80,29.82,29.45,11,1,0,0.50
2012-9-19,60,51,43,47,43,37,97,78,44,30.16,29.83,6,1,0,0.00
2012-9-20,71,58,44,54,46,41,92,67,39,30.14,29.90,6,0,0,0.00
2012-9-21,70,63,56,59,55,50,90,76,59,29.91,29.82,4,0,0,0.00
2012-9-22,56,54,47,55,52,46,97,93,75,29.95,29.61,7,0,2,0.10
2012-9-23,57,49,42,46,42,39,97,80,54,30.15,29.95,9,1,0,0.01
2012-9-24,58,49,39,48,43,38,97,81,59,30.18,29.98,8,1,0,0.00
2012-9-25,70,61,52,51,44,40,71,56,38,30.01,29.92,4,1,6,0.00
2012-9-26,66,60,54,62,57,51,96,90,71,30.13,29.91,5,0,0,0.25
2012-9-27,64,52,43,53,48,42,97,85,61,30.25,30.13,2,0,1,0.00
2012-9-28,59,51,43,53,48,42,96,89,67,30.17,30.06,1,0,0,0.01
2012-9-29,63,52,44,53,48,43,97,87,58,30.07,29.95,2,0,0,0.00
2012-9-30,59,53,49,53,49,47,97,89,67,29.95,29.85,3,0,0,0.08
2012-10-1,62,55,49,53,50,47,94,83,62,29.92,29.84,5,0,0,0.00
2012-10-2,66,58,49,63,56,48,97,94,89,29.94,29.85,1,0,0,0.05
2012-10-3,70,63,59,66,61,58,97,93,80,30.12,29.91,8,0,0,0.00
2012-10-4,72,64,58,60,56,53,97,79,51,30.14,30.03,8,1,0,0.00
2012-10-5,67,60,52,61,56,51,96,86,75,30.03,29.87,9,1,0,0.09
2012-10-6,53,49,46,51,42,35,96,80,60,30.05,29.82,7,1,0,0.66
2012-10-7,49,44,37,44,41,36,96,88,69,30.14,30.03,3,0,0,0.26
2012-10-8,50,43,36,44,41,35,97,93,79,30.24,30.14,3,0,0,0.00
2012-10-9,60,46,35,46,40,34,97,82,53,30.22,29.97,5,0,0,0.00
2012-10-10,54,47,41,46,41,34,96,79,60,30.04,29.78,9,2,0,0.03
2012-10-11,55,47,35,38,34,31,88,61,45,30.20,30.03,6,2,11,0.00
2012-10-12,54,40,30,45,33,24,94,78,43,30.46,30.03,8,1,0,0.15
2012-10-13,56,41,29,47,32,26,92,73,44,30.46,29.97,7,0,0,0.06
2012-10-14,76,66,55,62,58,48,93,76,57,29.97,29.55,8,2,0,0.28
2012-10-15,71,54,46,58,49,40,93,83,62,29.82,29.48,15,3,0,0.28
2012-10-16,50,46,40,41,39,37,94,78,61,29.94,29.82,6,1,0,0.00
2012-10-17,70,53,39,53,44,37,95,74,46,29.91,29.77,6,0,0,0.00
2012-10-18,70,57,49,51,47,42,95,70,49,29.85,29.65,8,1,0,0.46
2012-10-19,67,53,42,52,47,41,97,83,44,29.81,29.61,3,0,0,0.00
2012-10-20,54,50,46,51,45,41,95,84,65,29.81,29.61,5,1,0,0.20
2012-10-21,57,51,43,50,47,42,97,86,73,30.10,29.81,9,2,0,0.00
2012-10-22,66,52,42,49,45,41,97,80,46,30.15,30.06,5,0,0,0.00
2012-10-23,57,54,50,57,53,47,97,96,85,30.07,30.00,1,0,0,0.87
2012-10-24,63,57,52,61,56,51,98,97,95,30.09,30.05,3,0,0,0.03
2012-10-25,82,66,57,62,57,55,98,77,40,30.08,29.95,11,1,0,0.00
2012-10-26,74,60,47,58,53,45,93,76,55,30.18,29.96,7,1,0,0.16
2012-10-27,49,47,44,48,46,42,97,96,94,30.15,29.97,4,0,0,0.59
2012-10-28,44,42,41,42,41,40,97,95,93,30.09,29.91,5,1,0,0.22
2012-10-29,46,43,42,45,42,41,97,96,95,29.91,29.17,9,2,0,1.31
2012-10-30,55,51,43,53,47,41,96,89,73,29.39,29.05,7,2,0,0.45
2012-10-31,45,42,38,44,39,37,97,90,74,29.47,29.38,4,0,0,0.08
2012-11-1,44,43,42,43,41,38,96,93,87,29.64,29.47,9,3,0,0.34
2012-11-2,42,39,35,38,35,33,95,87,73,29.93,29.64,8,2,0,0.19
2012-11-3,41,38,35,34,33,31,94,82,72,30.11,29.93,11,2,0,0.01
2012-11-4,37,35,34,32,30,28,92,80,73,30.14,30.10,6,1,0,0.00
2012-11-5,36,34,31,30,28,26,87,80,73,30.23,30.12,3,0,0,0.00
2012-11-6,42,33,27,27,25,23,88,72,50,30.22,30.07,5,0,0,0.00
2012-11-7,42,31,23,28,25,22,94,79,53,30.13,30.07,4,0,0,0.00
2012-11-8,43,30,21,30,24,19,96,80,49,30.19,30.11,10,1,0,0.00
2012-11-9,48,39,27,42,36,26,94,87,70,30.22,30.14,5,0,0,0.00
2012-11-10,53,48,42,46,43,40,96,85,72,30.28,30.16,2,0,0,0.02
2012-11-11,73,62,52,46,41,34,73,47,25,30.25,30.13,7,1,0,0.00
2012-11-12,71,58,39,51,45,37,93,64,47,30.17,29.86,12,3,0,0.51
2012-11-13,40,37,34,37,27,23,90,68,59,30.56,30.18,7,1,0,0.01
2012-11-14,40,36,30,32,29,26,88,75,58,30.63,30.50,2,0,0,0.00
2012-11-15,49,35,26,30,28,24,95,77,45,30.49,30.33,4,0,0,0.00
2012-11-16,48,35,26,35,30,25,94,84,58,30.53,30.36,3,0,0,0.00
2012-11-17,51,37,29,41,32,28,96,86,63,30.66,30.53,2,0,0,0.00
2012-11-18,55,38,28,38,31,27,97,79,43,30.64,30.50,4,0,0,0.00
2012-11-19,53,38,29,37,32,28,95,80,48,30.50,30.25,3,0,0,0.01
2012-11-20,53,41,32,39,34,30,93,80,52,30.24,30.11,2,0,0,0.00
2012-11-21,55,38,28,39,31,27,96,79,43,30.27,30.17,3,0,0,0.00
2012-11-22,60,44,32,43,36,29,90,74,48,30.23,29.97,5,0,0,0.00
2012-11-23,54,47,35,46,37,27,90,69,52,29.95,29.66,13,4,0,0.08
2012-11-24,36,34,32,28,24,20,80,69,55,29.97,29.76,16,5,0,0.00
2012-11-25,34,32,30,29,26,19,93,80,59,29.96,29.83,9,2,0,0.00
2012-11-26,37,34,32,28,26,21,78,70,62,30.25,29.91,7,2,0,0.06
2012-11-27,36,32,29,28,25,22,86,76,59,30.32,30.25,3,0,0,0.01
2012-11-28,36,34,30,30,25,20,90,71,57,30.27,30.19,10,2,0,0.02
2012-11-29,44,38,31,36,30,22,82,73,60,30.29,30.21,13,2,0,0.08
2012-11-30,38,30,25,33,27,23,91,87,79,30.39,30.29,4,1,0,0.00
2012-12-1,51,39,25,40,33,23,93,80,65,30.37,30.17,5,0,0,0.04
2012-12-2,53,51,48,52,46,40,97,85,65,30.17,29.91,10,2,0,0.32
2012-12-3,58,49,42,55,47,41,97,91,76,30.23,30.06,2,0,0,0.00
2012-12-4,66,58,46,57,53,43,95,83,65,30.06,29.88,8,1,0,0.54
2012-12-5,46,36,26,43,28,20,90,75,58,30.39,29.98,10,3,0,0.00
2012-12-6,44,32,20,28,23,18,94,73,45,30.42,30.05,5,0,0,0.00
2012-12-7,47,42,35,41,36,25,93,80,63,30.04,29.93,2,0,0,0.00
2012-12-8,46,42,36,45,40,33,97,95,88,30.17,29.76,4,0,0,0.15
2012-12-9,45,36,30,44,32,23,96,86,76,30.28,29.73,4,1,0,0.22
2012-12-10,54,43,35,52,41,31,96,93,85,29.76,29.53,9,2,0,0.20
2012-12-11,35,32,28,31,27,25,92,83,73,30.18,29.78,7,1,0,0.00
2012-12-12,40,34,29,32,29,25,94,81,65,30.44,30.19,8,1,0,0.03
2012-12-13,45,34,27,28,26,23,92,74,43,30.46,30.22,4,0,0,0.00
2012-12-14,44,38,30,36,29,21,96,74,51,30.27,30.17,8,1,0,0.00
2012-12-15,44,36,28,36,32,27,97,86,65,30.28,29.93,3,0,0,0.01
2012-12-16,57,48,42,44,40,32,85,74,60,29.94,29.68,10,2,0,0.02
2012-12-17,48,45,43,45,43,41,96,90,84,29.75,29.54,7,1,0,0.09
2012-12-18,42,41,38,42,39,33,97,92,81,29.76,29.48,10,2,0,0.37
2012-12-19,41,37,32,34,32,29,95,83,66,30.19,29.76,4,0,0,0.00
2012-12-23,37,32,29,29,26,23,89,78,70,30.03,29.82,10,2,0,0.05
2012-12-24,32,30,28,27,23,21,92,76,68,30.08,29.88,3,0,0,0.02
2012-12-25,34,30,29,28,27,25,94,86,71,30.34,29.91,2,0,0,0.04
2012-12-26,30,26,22,26,22,18,94,85,76,30.35,29.79,6,1,0,0.00
2012-12-27,27,25,25,25,24,22,94,93,89,30.09,29.74,4,1,0,0.00
2012-12-28,27,25,23,25,23,21,95,93,90,30.16,30.04,4,0,0,0.00
2012-12-29,29,27,25,28,25,23,95,93,91,30.04,29.70,8,0,0,0.00
2012-12-30,29,25,21,26,21,18,91,83,68,30.28,29.89,8,2,0,0.00
2012-12-31,36,31,26,31,25,21,87,79,69,30.23,29.88,9,3,0,0.00
2013-1-1,34,23,8,29,17,5,89,77,60,30.07,29.89,12,2,0,0.00